Location: Roanoke
(37.2710°N, 79.9420°W)
Time: 19:23:41
(UTC-05:00)

Transit 2A - Pass Details

Date: 26 November 2019
Orbit: 602 x 957 km, 66.7° (Epoch: 14 December)

Event Time Altitude Azimuth Distance (km) Brightness Sun altitude
Rises 09:34:22 0° 183° (S) 3,254 10.0 21.6°
Reaches altitude 10° 09:37:04 10° 174° (S) 2,268 9.6 21.9°
Maximum altitude 09:41:37 33° 112° (ESE) 1,187 8.3 22.5°
Drops below altitude 10° 09:45:49 10° 49° (NE) 2,090 8.3 22.9°
Sets 09:48:12 0° 39° (NE) 2,962 8.9 23.2°
